Loging...

KPDC, Korea Polar Data Center

Korea Polar Data Center Scientific observations and results from Antarctica shall
be exchanged and made freely available

Browse

Popular Keywords

Search 29,316 data out of 29,316

Metadata Search Results1
No. Title Reg. Date
1 [KOPRI-KPDC-00001966]Crabeater Seal Tissue Samples (2021-2022) 2022-07-04
2 [KOPRI-KPDC-00001960]Weddell Seal Blood Samples (2021-2022) 2022-07-04
3 [KOPRI-KPDC-00001965]Weddell Seal Tissue Samples (2021-2022) 2022-07-04
4 [KOPRI-KPDC-00001963]Weddell Seal Whiskr Samples (2021-2022) 2022-07-04
5 [KOPRI-KPDC-00001962]Crabeater Seal Fur Samples (2021-2022) 2022-07-04
6 [KOPRI-KPDC-00001968]Weddell Seal Fecal Samples (2021-2022) 2022-07-04
7 [KOPRI-KPDC-00001967]Crabeater Seal Fecal Samples (2021-2022) 2022-07-04
8 [KOPRI-KPDC-00001964]Weddell Seal Anal Swab Samples (2021-2022) 2022-07-04
9 [KOPRI-KPDC-00001959]Weddell Seal Placenta Sample (2021-2022) 2022-07-04
10 [KOPRI-KPDC-00001961]Weddell Seal Fur Samples (2021-2022) 2022-07-04
11 [KOPRI-KVH-00004643]Lomentaria chilensis Roth (KOPRI-KC012) 2022-06-30
12 [KOPRI-KVH-00001551]Neuroglossum ligulatum (Reinsch) Skottsberg (KOPRI-CH2792) 2022-06-30
13 [KOPRI-KVH-00004218]Myriogramme manginii (Gain) Skottsberg (KOPRI-CH3344) 2022-06-30
14 [KOPRI-KVH-00002930]Petroderma maculiforme (Wollny) Kuckuck (KOPRI-CH2407) 2022-06-30
15 [KOPRI-KVH-00004642]Plocamium cartilagineum (Linnaeus) P.S.Dixon 1967 (KOPRI-CH4063) 2022-06-29
16 [KOPRI-KVH-00004641]Phyllophora antarctica A.Gepp & E.S.Gepp 1905 (KOPRI-CH4062) 2022-06-29
17 [KOPRI-KVH-00004640]Phyllophora antarctica A.Gepp & E.S.Gepp 1905 (KOPRI-CH4061) 2022-06-29
18 [KOPRI-KVH-00004639]Phyllophora antarctica A.Gepp & E.S.Gepp 1905 (KOPRI-CH4060) 2022-06-29
19 [KOPRI-KVH-00004638]Phyllophora antarctica A.Gepp & E.S.Gepp 1905 (KOPRI-CH4059) 2022-06-29
20 [KOPRI-KVH-00004637]Phyllophora antarctica A.Gepp & E.S.Gepp 1905 (KOPRI-CH4058) 2022-06-29
21 [KOPRI-KVH-00004636]Phyllophora antarctica A.Gepp & E.S.Gepp 1905 (KOPRI-CH4057) 2022-06-29
22 [KOPRI-KVH-00004635]Phyllophora antarctica A.Gepp & E.S.Gepp 1905 (KOPRI-CH4056) 2022-06-29
23 [KOPRI-KVH-00004634]Phyllophora antarctica A.Gepp & E.S.Gepp 1905 (KOPRI-CH4055) 2022-06-29
24 [KOPRI-KVH-00004633]Phyllophora antarctica A.Gepp & E.S.Gepp 1905 (KOPRI-CH4054) 2022-06-29
25 [KOPRI-KVH-00004632]Phyllophora antarctica A.Gepp & E.S.Gepp 1905 (KOPRI-CH4053) 2022-06-29
26 [KOPRI-KVH-00004631]Iridaea cordata (Turner) Bory 1826 (KOPRI-CH4052) 2022-06-29
27 [KOPRI-KVH-00004630]Iridaea cordata (Turner) Bory 1826 (KOPRI-CH4051) 2022-06-29
28 [KOPRI-KVH-00004629]Iridaea cordata (Turner) Bory 1826 (KOPRI-CH4050) 2022-06-29
29 [KOPRI-KVH-00004628]Iridaea cordata (Turner) Bory 1826 (KOPRI-CH4049) 2022-06-29
30 [KOPRI-KVH-00004627]Iridaea cordata (Turner) Bory 1826 (KOPRI-CH4048) 2022-06-29
31 [KOPRI-KVH-00004626]Iridaea cordata (Turner) Bory 1826 (KOPRI-CH4047) 2022-06-29
32 [KOPRI-KVH-00004625]Iridaea cordata (Turner) Bory 1826 (KOPRI-CH4046) 2022-06-29
33 [KOPRI-KVH-00004624]Iridaea cordata (Turner) Bory 1826 (KOPRI-CH4045) 2022-06-29
34 [KOPRI-KVH-00004623]Iridaea cordata (Turner) Bory 1826 (KOPRI-CH4044) 2022-06-29
35 [KOPRI-KVH-00004622]Iridaea cordata (Turner) Bory 1826 (KOPRI-CH4043) 2022-06-29
36 [KOPRI-KVH-00004621]Plocamium cartilagineum (Linnaeus) P.S.Dixon 1967 (KOPRI-CH4042) 2022-06-29
37 [KOPRI-KVH-00004620]Plocamium cartilagineum (Linnaeus) P.S.Dixon 1967 (KOPRI-CH4041) 2022-06-29
38 [KOPRI-KVH-00004619]Plocamium cartilagineum (Linnaeus) P.S.Dixon 1967 (KOPRI-CH4040) 2022-06-29
39 [KOPRI-KVH-00004618]Phyllophora antarctica A.Gepp & E.S.Gepp 1905 (KOPRI-CH4039) 2022-06-29
40 [KOPRI-KVH-00004617]Phyllophora antarctica A.Gepp & E.S.Gepp 1905 (KOPRI-CH4038) 2022-06-29
41 [KOPRI-KVH-00004616]Iridaea cordata (Turner) Bory 1826 (KOPRI-CH4037) 2022-06-29
42 [KOPRI-KVH-00004615]Iridaea cordata (Turner) Bory 1826 (KOPRI-CH4036) 2022-06-29
43 [KOPRI-KVH-00004614]Iridaea cordata (Turner) Bory 1826 (KOPRI-CH4035) 2022-06-29
44 [KOPRI-KVH-00004613]Iridaea cordata (Turner) Bory 1826 (KOPRI-CH4034) 2022-06-29
45 [KOPRI-KVH-00004612]Iridaea cordata (Turner) Bory 1826 (KOPRI-CH4033) 2022-06-29
46 [KOPRI-KVH-00004611]Iridaea cordata (Turner) Bory 1826 (KOPRI-CH4032) 2022-06-29
47 [KOPRI-KVH-00004610]Plocamium cartilagineum (Linnaeus) P.S.Dixon 1967 (KOPRI-CH4031) 2022-06-29
48 [KOPRI-KVH-00004609]Iridaea cordata (Turner) Bory 1826 (KOPRI-CH4030) 2022-06-29
49 [KOPRI-KVH-00004608]Iridaea cordata (Turner) Bory 1826 (KOPRI-CH4029) 2022-06-29
50 [KOPRI-KVH-00004607]Iridaea cordata (Turner) Bory 1826 (KOPRI-CH4028) 2022-06-29
51 [KOPRI-KVH-00004606]Iridaea cordata (Turner) Bory 1826 (KOPRI-CH4027) 2022-06-29
52 [KOPRI-KVH-00004605]Iridaea cordata (Turner) Bory 1826 (KOPRI-CH4026) 2022-06-29
53 [KOPRI-KVH-00004604]Iridaea cordata (Turner) Bory 1826 (KOPRI-CH4025) 2022-06-29
54 [KOPRI-KVH-00004603]Iridaea cordata (Turner) Bory 1826 (KOPRI-CH4024) 2022-06-29
55 [KOPRI-KVH-00004602]Iridaea cordata (Turner) Bory 1826 (KOPRI-CH4023) 2022-06-29
56 [KOPRI-KVH-00004601]Phyllophora antarctica A.Gepp & E.S.Gepp 1905 (KOPRI-CH4022) 2022-06-29
57 [KOPRI-KVH-00004600]Phyllophora antarctica A.Gepp & E.S.Gepp 1905 (KOPRI-CH4021) 2022-06-29
58 [KOPRI-KVH-00004599]Phyllophora antarctica A.Gepp & E.S.Gepp 1905 (KOPRI-CH4020) 2022-06-29
59 [KOPRI-KVH-00004598]Phyllophora antarctica A.Gepp & E.S.Gepp 1905 (KOPRI-CH4019) 2022-06-29
60 [KOPRI-KVH-00004597]Phyllophora antarctica A.Gepp & E.S.Gepp 1905 (KOPRI-CH4018) 2022-06-29
61 [KOPRI-KVH-00004596]Phyllophora antarctica A.Gepp & E.S.Gepp 1905 (KOPRI-CH4017) 2022-06-29
62 [KOPRI-KVH-00004595]Phyllophora antarctica A.Gepp & E.S.Gepp 1905 (KOPRI-CH4016) 2022-06-29
63 [KOPRI-KVH-00004594]Phyllophora antarctica A.Gepp & E.S.Gepp 1905 (KOPRI-CH4015) 2022-06-29
64 [KOPRI-KPDC-00001958]Geophysical data (MCS and SBP) collected during the 2013 ARA04C and 2014 ARA05C expeditions on the Beufort sea. 2022-06-28
65 [KOPRI-KPDC-00001953]Molecular complex of organic aerosol particles collected at ARAON(ANA10TR ST10, Sea Water) 2022-06-27
66 [KOPRI-KPDC-00001952]Molecular complex of organic aerosol particles collected at ARAON(ANA10TR ST07, Sea Water) 2022-06-27
67 [KOPRI-KPDC-00001951]Molecular complex of organic aerosol particles collected at ARAON(ANA10TR ST06, Sea Water) 2022-06-27
68 [KOPRI-KPDC-00001950]Molecular complex of organic aerosol particles collected at ARAON(ANA10TR ST02, Sea Water) 2022-06-27
69 [KOPRI-KPDC-00001949]Molecular complex of organic aerosol particles collected at ARAON, ANA10TR ST34 2022-06-27
70 [KOPRI-KPDC-00001948]Molecular complex of organic aerosol particles collected at ARAON, ANA10TR ST33 Land Ice 2022-06-27
71 [KOPRI-KPDC-00001954]Molecular complex of organic aerosol particles collected at ARAON(ANA10TR ST27, Sea Water) 2022-06-27
72 [KOPRI-KPDC-00001955]Molecular complex of organic aerosol particles collected at ARAON(ANA10TR ST45, Sea Water) 2022-06-27
73 [KOPRI-KPDC-00001956]Molecular complex of organic aerosol particles collected at ARAON(ANA10TR ST28B, Sea Ice) 2022-06-27
74 [KOPRI-KPDC-00001957]Molecular complex of organic aerosol particles collected at ARAON(ANA10TR ST28C, Sea Ice) 2022-06-27
75 [KOPRI-KPDC-00001947]Air temperature, air humidity, PAR, substrate temperature, and substrate humidity data from Barton Peninsular in King George Island collected in 2021. 2022-06-23
76 [KOPRI-KPDC-00001939]Wind data on ARAON DaDis for Antarctic cruise, 2021/2022 2022-06-10
77 [KOPRI-KPDC-00001940]Weather data on ARAON DaDis for Antarctic cruise, 2021/2022 2022-06-10
78 [KOPRI-KPDC-00001941]Thermosalinograph data on ARAON DaDis for Antarctic cruise, 2021/2022 2022-06-10
79 [KOPRI-KPDC-00001942]Motion sensor data on ARAON DaDis for Antarctic cruise, 2021/2022 2022-06-10
80 [KOPRI-KPDC-00001943]Gyro compass data on ARAON DaDis for Antarctic cruise, 2021/2022 2022-06-10
81 [KOPRI-KPDC-00001944]GPS data on ARAON DaDis for Antarctic cruise, 2021/2022 2022-06-10
82 [KOPRI-KPDC-00001945]Fluorometer data on ARAON DaDis for Antarctic cruise, 2021/2022 2022-06-10
83 [KOPRI-KPDC-00001946]GPS data on ARAON DaDis for Antarctic cruise, 2020/2021 2022-06-10
84 [KOPRI-KPDC-00001938]NIWA oceanographic mooring data in the Drygalski Ice Tongue North 2022 2022-05-31
85 [KOPRI-KPDC-00001937]NIWA oceanographic deep mooring data in the Drygalski Ice Tongue 2022 2022-05-31
86 [KOPRI-KPDC-00001936]RTK GNSS data in Thwaites Glacier: 2020-2022 2022-05-25
87 [KOPRI-KPDC-00001935]ApRES (Autonomous phase-sensitive Radio Echo Sounder) data in Thwaites Glacier: 2020-2021 2022-05-25
88 [KOPRI-KPDC-00001933]Ice sheet monitoring GPS data around the Jang Bogo Station in 2021 2022-05-12
89 [KOPRI-KPDC-00001934]KPSN Seismic Data at Victoria Land, Antarctic 2021 2022-05-12
90 [KOPRI-KPDC-00001932]LADCP data observed in the ocean near Dotsen and Getz ice shelves, Amundsen Sea, in Jan-Feb, 2022 (ANA12C) 2022-05-03
91 [KOPRI-KPDC-00001930]VMP (Vertical Microstructure Profiler) data observed in the ocean near Dotson and Getz ice shelves, Amundsen Sea, in Jan-Feb, 2022 (ANA12C) 2022-05-03
92 [KOPRI-KPDC-00001931]CTD profiles observed in the ocean near Dotsen and Getz ice shelves, Amundsen Sea, in Jan-Feb, 2022 (ANA12C) 2022-05-03
93 [KOPRI-KPDC-00001929]CTD profiles observed in the Terra Nova Bay, Ross Sea, in March 2022 (ANA12D) 2022-05-02
94 [KOPRI-KPDC-00001928]LADCP data observed in the Terra Nova Bay, Ross Sea, in March, 2022 (ANA12D) 2022-05-02
95 [KOPRI-KPDC-00000235]CTD Data surrounding Amundsen Sea of Antarctic in 2011 2022-04-25
96 [KOPRI-KPDC-00001926]Observation data of ozonesonde over the (sub)arctic region using icebreaker research vessel during summer 2021 2022-04-22
97 [KOPRI-KPDC-00001925]Mesozooplankton community structures in the western Ross Sea Region Marine Protected Area in 2018 - 2020 2022-04-11
98 [KOPRI-KPDC-00001902]Time series of volume backscattering strength in the Arctic Ocean 2022-04-11
99 [KOPRI-KPDC-00001924]Meteorological data at the Jang Bogo Station, Antarctica in 2022 2022-04-08
100 [KOPRI-KPDC-00001923]Meteorological data at the Jang Bogo Station, Antarctica in 2021 2022-04-08